COSMOS 249 DEB

基本信息
目录编号:
18602
目录名称:
COSMOS 249 DEB
国际标识:
1968-091DG
轨道中心:
EARTH
物体状态:
在轨
发射日期:
1968-10-20 UTC
轨道信息
数据来源: 国际轨道数据
星历时间: 2026-07-13T13:12:43+0800
半长轴: 7602.444km
偏心率: 0.0624516
轨道倾角: 62.237°
近地点辐角: 260.341°
升交点赤经: 119.284°
平近点角: 256.538°
近地点: 749.522km
远地点: 1699.092km
周期: 109.949分钟
每日圈数: 13.097034
详细信息
发射场:
TTMTR
轨道高度:
LEO
数据来源:
AOE Integration Group
参考系:
TEME
时间系统:
UTC
历元类型:
SGP4
2D轨道图
3D轨道图
轨道高度分析图
轨道倾角分析图
轨道综合分析图
查看轨道综合分析图